Kezdőlap
METAR-TAF:

METAR-TAF

Repülőterek :

Stevens Point Municipal Airport

Stevens Point, Wisconsin, Amerikai Egyesült Államok

földrajzi szélesség: 44-32-42N, földrajzi hosszúság: 089-31-49W, magasság: 338 m

Jelenlegi meteorológiai megfigyelések

A jelentés 16 perccel ezelõtt készült, 13:35 UTC
Nyugati szél 8 kt
Hőmérséklet -3°C
Páratartalom 58%
Légköri nyomás 1023 hPa
Látótávolság: 16.1 km
Derült ég

METAR: KSTE 041335Z AUTO 27008KT 10SM CLR M03/M10 A3020 RMK AO2 T10261105

Idő: 07:51 (13:51 UTC)


TAF: hiányzik

Meteorológiai megfigyelések és előrejelzések több, mint 4000 repülőtéren (METAR és TAF jelentéseket).

A térképen piros és sárga pontok jelzik az elérhető meteorológiai állomásokat.

Mozgassa az egeret a pont fölött, hogy megjelenjen az állomás neve.

Azután kattintson az időjárási megfigyelések és előrejelzések megtekintéséhez.

A térkép megváltoztatása: kattintson a fekete keresztel jelölt zöld gombra ráközelítéshez, a vonallal jelölt zöld gombra távolításhoz, vagy a zöld nyilakra a szomszédos térképek eléréséhez.


METAR-TAF: